STARLINK-31470 (59569 NORAD) Tracking and Keplerian Element Data

This shows tracking and keplerian element data for the satellite.

Feedback or suggestion? Click here.




ElementValue
Catalog59569
NameSTARLINK-31470
Epoch Orbit812
Epoch Day160.0701997
Epoch Year2024
RAAN54.7862
Inclination42.9996
Eccentricity0.000155
Argument of Perigee289.1336
Mean Anonmoly70.9352
Mean Motion15.40705941
Decay Rate-2.33E-06
L11 59569U 24076F 24160.07019970 -.00000233 00000+0 16921-5 0 9991
L22 59569 42.9996 54.7862 0001550 289.1336 70.9352 15.40705941 8123



Live tracking and technical data element details for STARLINK-31470 (NORAD 59569). STARLINK-31470 can be tracked NOW for your location showing map with azimuth and elevation plus other details from your city location.







IsCatalogInMostPopularTable: catalog: 59569, numindb: 12
Update: records affected: 1



GetName: 59569 STARLINK-31470

Hit Count: updated at: Fri, 14 Jun 2024 18:51:18 GMT